| time (UTC) | temp C | wind direction | speed KPH | gust KPH | rain 1hr cm | rain 24hr cm | rain mn cm | humidity % | barometer mb |
| 20260505185701 | 27 | 109 | 6.4 | 14.5 | 0.00 | 0.00 | 0.00 | 49 | 1014.4 |
| 20260505185201 | 27 | 210 | 6.4 | 19.3 | 0.00 | 0.00 | 0.00 | 49 | 1014.5 |
| 20260505184708 | 27 | 72 | 4.8 | 19.3 | 0.00 | 0.00 | 0.00 | 49 | 1014.5 |
| 20260505184200 | 27 | 115 | 4.8 | 9.7 | 0.00 | 0.00 | 0.00 | 49 | 1014.6 |
| 20260505183702 | 27 | 140 | 4.8 | 11.3 | 0.00 | 0.00 | 0.00 | 50 | 1014.7 |
| 20260505182701 | 28 | 145 | 3.2 | 11.3 | 0.00 | 0.00 | 0.00 | 48 | 1014.8 |
| 20260505182201 | 28 | 253 | 3.2 | 12.9 | 0.00 | 0.00 | 0.00 | 47 | 1014.9 |
| 20260505181702 | 27 | 277 | 3.2 | 12.9 | 0.00 | 0.00 | 0.00 | 48 | 1014.9 |
| 20260505181200 | 27 | 20 | 4.8 | 12.9 | 0.00 | 0.00 | 0.00 | 50 | 1014.9 |
| 20260505180701 | 27 | 51 | 4.8 | 12.9 | 0.00 | 0.00 | 0.00 | 49 | 1014.9 |
| 20260505175702 | 26 | 157 | 3.2 | 11.3 | 0.00 | 0.00 | 0.00 | 50 | 1015.1 |
| 20260505175205 | 26 | 312 | 4.8 | 11.3 | 0.00 | 0.00 | 0.00 | 50 | 1015.2 |
| 20260505174701 | 26 | 44 | 6.4 | 11.3 | 0.00 | 0.00 | 0.00 | 50 | 1015.2 |
| 20260505174200 | 26 | 306 | 6.4 | 11.3 | 0.00 | 0.00 | 0.00 | 50 | 1015.3 |
| 20260505173201 | 26 | 26 | 3.2 | 9.7 | 0.00 | 0.00 | 0.00 | 50 | 1015.4 |
| 20260505172701 | 26 | 0 | 3.2 | 9.7 | 0.00 | 0.00 | 0.00 | 51 | 1015.5 |
| 20260505172200 | 26 | 130 | 3.2 | 9.7 | 0.00 | 0.00 | 0.00 | 53 | 1015.5 |
| 20260505171701 | 26 | 136 | 3.2 | 12.9 | 0.00 | 0.00 | 0.00 | 51 | 1015.4 |
| 20260505171200 | 25 | 0 | 4.8 | 12.9 | 0.00 | 0.00 | 0.00 | 52 | 1015.4 |
| 20260505170701 | 25 | 97 | 6.4 | 12.9 | 0.00 | 0.00 | 0.00 | 54 | 1015.6 |
| 20260505170201 | 25 | 77 | 6.4 | 12.9 | 0.00 | 0.00 | 0.00 | 53 | 1015.6 |
| 20260505165701 | 25 | 6 | 6.4 | 14.5 | 0.00 | 0.00 | 0.00 | 54 | 1015.7 |
| 20260505163701 | 25 | 228 | 6.4 | 24.1 | 0.00 | 0.00 | 0.00 | 54 | 1015.9 |
| 20260505163201 | 25 | 88 | 6.4 | 24.1 | 0.00 | 0.00 | 0.00 | 53 | 1015.9 |
| 20260505162702 | 25 | 6 | 4.8 | 16.1 | 0.00 | 0.00 | 0.00 | 56 | 1015.9 |
| 20260505162200 | 25 | 143 | 4.8 | 11.3 | 0.00 | 0.00 | 0.00 | 55 | 1016.0 |
| 20260505161701 | 25 | 76 | 4.8 | 12.9 | 0.00 | 0.00 | 0.00 | 55 | 1016.1 |
| 20260505161200 | 25 | 96 | 4.8 | 16.1 | 0.00 | 0.00 | 0.00 | 55 | 1016.1 |
| 20260505160701 | 25 | 110 | 6.4 | 16.1 | 0.00 | 0.00 | 0.00 | 57 | 1016.0 |
| 20260505160202 | 25 | 74 | 6.4 | 16.1 | 0.00 | 0.00 | 0.00 | 56 | 1016.1 |
| 20260505153202 | 25 | 117 | 6.4 | 19.3 | 0.00 | 0.00 | 0.00 | 56 | 1016.1 |
| 20260505152701 | 25 | 124 | 6.4 | 19.3 | 0.00 | 0.00 | 0.00 | 58 | 1016.1 |
| 20260505152202 | 24 | 0 | 6.4 | 12.9 | 0.00 | 0.00 | 0.00 | 59 | 1016.1 |
| 20260505151701 | 24 | 89 | 6.4 | 14.5 | 0.00 | 0.00 | 0.00 | 62 | 1016.1 |
| 20260505151200 | 24 | 104 | 6.4 | 14.5 | 0.00 | 0.00 | 0.00 | 62 | 1016.1 |
| 20260505150700 | 24 | 94 | 4.8 | 14.5 | 0.00 | 0.00 | 0.00 | 62 | 1016.0 |
| 20260505150202 | 24 | 0 | 4.8 | 9.7 | 0.00 | 0.00 | 0.00 | 61 | 1016.0 |
| 20260505140201 | 23 | 158 | 4.8 | 14.5 | 0.00 | 0.00 | 0.00 | 69 | 1016.0 |
| 20260505130201 | 21 | 124 | 3.2 | 8.0 | 0.00 | 0.00 | 0.00 | 77 | 1015.6 |
| 20260505124202 | 20 | 148 | 1.6 | 8.0 | 0.00 | 0.00 | 0.00 | 84 | 1015.5 |
| 20260505123701 | 18 | 0 | 3.2 | 8.0 | 0.00 | 0.00 | 0.00 | 88 | 1015.5 |
| 20260505123201 | 18 | 72 | 3.2 | 8.0 | 0.00 | 0.00 | 0.00 | 91 | 1015.5 |
| 20260505122702 | 17 | 80 | 0.0 | 6.4 | 0.00 | 0.00 | 0.00 | 95 | 1015.5 |
| 20260505122201 | 17 | 0 | 0.0 | 3.2 | 0.00 | 0.00 | 0.00 | 97 | 1015.7 |
| 20260505121701 | 16 | 0 | 0.0 | 3.2 | 0.00 | 0.00 | 0.00 | 98 | 1015.8 |
| 20260505121202 | 16 | 0 | 0.0 | 1.6 | 0.00 | 0.00 | 0.00 | 99 | 1015.8 |
| 20260505120701 | 15 | 0 | 0.0 | 1.6 | 0.00 | 0.00 | 0.00 | 98 | 1015.7 |
| 20260505120201 | 15 | 0 | 0.0 | 0.0 | 0.00 | 0.00 | 0.00 | 99 | 1015.5 |
| 20260505115700 | 15 | 0 | 0.0 | 0.0 | 0.00 | 0.00 | 0.00 | 99 | 1015.5 |
| 20260505115201 | 14 | 0 | 0.0 | 0.0 | 0.00 | 0.00 | 0.00 | 99 | 1015.4 |
| 20260505114202 | 13 | 0 | 0.0 | 0.0 | 0.00 | 0.00 | 0.00 | 99 | 1015.2 |
| 20260505113701 | 13 | 0 | 0.0 | 0.0 | 0.00 | 0.00 | 0.00 | 99 | 1015.2 |
| 20260505112702 | 12 | 0 | 0.0 | 0.0 | 0.00 | 0.00 | 0.00 | 99 | 1015.3 |
| 20260505112200 | 12 | 0 | 0.0 | 3.2 | 0.00 | 0.00 | 0.00 | 99 | 1015.3 |
| 20260505111702 | 12 | 241 | 0.0 | 3.2 | 0.00 | 0.00 | 0.00 | 99 | 1015.2 |
| 20260505111202 | 12 | 0 | 0.0 | 0.0 | 0.00 | 0.00 | 0.00 | 99 | 1015.2 |
| 20260505110702 | 12 | 0 | 0.0 | 0.0 | 0.00 | 0.00 | 0.00 | 98 | 1015.0 |
| 20260505110202 | 12 | 0 | 0.0 | 3.2 | 0.00 | 0.00 | 0.00 | 99 | 1015.0 |
| 20260505102202 | 12 | 0 | 0.0 | 0.0 | 0.00 | 0.00 | 0.00 | 98 | 1014.7 |
| 20260505101702 | 12 | 0 | 0.0 | 1.6 | 0.00 | 0.00 | 0.00 | 98 | 1014.7 |
| 20260505100201 | 12 | 285 | 1.6 | 3.2 | 0.00 | 0.00 | 0.00 | 98 | 1014.6 |
| 20260505095702 | 12 | 233 | 1.6 | 3.2 | 0.00 | 0.00 | 0.00 | 98 | 1014.5 |
| 20260505095202 | 12 | 0 | 0.0 | 0.0 | 0.00 | 0.00 | 0.00 | 98 | 1014.5 |
| 20260505094701 | 12 | 47 | 0.0 | 0.0 | 0.00 | 0.00 | 0.00 | 98 | 1014.4 |
| 20260505094201 | 12 | 0 | 0.0 | 3.2 | 0.00 | 0.00 | 0.00 | 98 | 1014.3 |
| 20260505093702 | 12 | 0 | 0.0 | 3.2 | 0.00 | 0.00 | 0.00 | 97 | 1014.3 |
| 20260505093201 | 13 | 26 | 0.0 | 3.2 | 0.00 | 0.00 | 0.00 | 97 | 1014.2 |
| 20260505092702 | 13 | 0 | 0.0 | 0.0 | 0.00 | 0.00 | 0.00 | 98 | 1014.2 |
| 20260505092202 | 12 | 0 | 0.0 | 1.6 | 0.00 | 0.00 | 0.00 | 97 | 1014.2 |
| 20260505091702 | 12 | 0 | 0.0 | 1.6 | 0.00 | 0.00 | 0.00 | 97 | 1014.1 |
| 20260505091202 | 13 | 0 | 0.0 | 3.2 | 0.00 | 0.00 | 0.00 | 97 | 1014.0 |
| 20260505090702 | 13 | 0 | 0.0 | 3.2 | 0.00 | 0.00 | 0.00 | 97 | 1014.0 |
| 20260505090207 | 12 | 258 | 0.0 | 1.6 | 0.00 | 0.00 | 0.00 | 97 | 1013.9 |
| 20260505085702 | 12 | 0 | 0.0 | 1.6 | 0.00 | 0.00 | 0.00 | 97 | 1013.9 |
| 20260505085202 | 12 | 0 | 0.0 | 0.0 | 0.00 | 0.00 | 0.00 | 97 | 1013.9 |
| 20260505084700 | 12 | 0 | 0.0 | 0.0 | 0.00 | 0.00 | 0.00 | 97 | 1013.9 |
| 20260505083701 | 13 | 0 | 0.0 | 0.0 | 0.00 | 0.00 | 0.00 | 97 | 1013.9 |
| 20260505083203 | 13 | 0 | 0.0 | 0.0 | 0.00 | 0.00 | 0.00 | 97 | 1014.0 |
| 20260505082702 | 13 | 0 | 0.0 | 0.0 | 0.00 | 0.00 | 0.00 | 97 | 1013.9 |
| 20260505082202 | 13 | 0 | 0.0 | 0.0 | 0.00 | 0.00 | 0.00 | 97 | 1013.9 |
| 20260505081701 | 13 | 0 | 0.0 | 1.6 | 0.00 | 0.00 | 0.00 | 96 | 1013.9 |
| 20260505080701 | 13 | 0 | 0.0 | 0.0 | 0.00 | 0.00 | 0.00 | 96 | 1013.8 |
| 20260505080202 | 13 | 0 | 0.0 | 0.0 | 0.00 | 0.00 | 0.00 | 96 | 1013.7 |
| 20260505075202 | 13 | 0 | 0.0 | 1.6 | 0.00 | 0.00 | 0.00 | 96 | 1013.9 |
| 20260505072702 | 13 | 0 | 0.0 | 1.6 | 0.00 | 0.00 | 0.00 | 95 | 1014.1 |
| 20260505072202 | 13 | 0 | 0.0 | 1.6 | 0.00 | 0.00 | 0.00 | 95 | 1014.2 |
| 20260505071701 | 13 | 3 | 0.0 | 1.6 | 0.00 | 0.00 | 0.00 | 95 | 1014.2 |
| 20260505071201 | 13 | 0 | 0.0 | 0.0 | 0.00 | 0.00 | 0.00 | 95 | 1014.3 |
| 20260505070702 | 13 | 0 | 0.0 | 0.0 | 0.00 | 0.00 | 0.00 | 95 | 1014.3 |
| 20260505070202 | 13 | 0 | 0.0 | 1.6 | 0.00 | 0.00 | 0.00 | 95 | 1014.4 |
| 20260505065202 | 14 | 0 | 0.0 | 1.6 | 0.00 | 0.00 | 0.00 | 94 | 1014.5 |
| 20260505064702 | 13 | 0 | 0.0 | 1.6 | 0.00 | 0.00 | 0.00 | 94 | 1014.4 |
| 20260505064202 | 14 | 0 | 0.0 | 1.6 | 0.00 | 0.00 | 0.00 | 94 | 1014.5 |
| 20260505063201 | 14 | 0 | 0.0 | 0.0 | 0.00 | 0.00 | 0.00 | 94 | 1014.5 |
| 20260505062702 | 14 | 0 | 0.0 | 0.0 | 0.00 | 0.00 | 0.00 | 94 | 1014.5 |
| 20260505062202 | 14 | 0 | 0.0 | 0.0 | 0.00 | 0.00 | 0.00 | 94 | 1014.6 |
| 20260505061702 | 14 | 0 | 0.0 | 0.0 | 0.00 | 0.00 | 0.00 | 93 | 1014.7 |
| 20260505061202 | 14 | 0 | 0.0 | 0.0 | 0.00 | 0.00 | 0.00 | 93 | 1014.8 |
| 20260505060651 | 14 | 0 | 0.0 | 3.2 | 0.00 | 0.00 | 0.00 | 93 | 1014.8 |
| 20260505060153 | 14 | 0 | 0.0 | 3.2 | 0.00 | 0.00 | 0.00 | 93 | 1014.9 |
| 20260505055651 | 14 | 0 | 0.0 | 1.6 | 0.00 | 0.00 | 0.00 | 92 | 1015.0 |
| 20260505055152 | 15 | 0 | 0.0 | 1.6 | 0.00 | 0.00 | 0.00 | 92 | 1015.0 |
| 20260505054657 | 14 | 0 | 0.0 | 1.6 | 0.00 | 0.00 | 0.00 | 92 | 1015.0 |
| 20260505054153 | 15 | 0 | 0.0 | 0.0 | 0.00 | 0.00 | 0.00 | 91 | 1015.0 |
| 20260505053653 | 15 | 0 | 0.0 | 0.0 | 0.00 | 0.00 | 0.00 | 91 | 1015.0 |
| 20260505053153 | 15 | 0 | 0.0 | 0.0 | 0.00 | 0.00 | 0.00 | 91 | 1015.0 |
| 20260505052653 | 15 | 0 | 0.0 | 0.0 | 0.00 | 0.00 | 0.00 | 91 | 1015.1 |
| 20260505052153 | 15 | 0 | 0.0 | 0.0 | 0.00 | 0.00 | 0.00 | 91 | 1015.3 |
| 20260505051147 | 15 | 0 | 0.0 | 0.0 | 0.00 | 0.00 | 0.00 | 90 | 1015.3 |
| 20260505050138 | 15 | 0 | 0.0 | 0.0 | 0.00 | 0.00 | 0.00 | 90 | 1015.5 |
| 20260505041632 | 17 | 23 | 0.0 | 3.2 | 0.00 | 0.00 | 0.00 | 84 | 1015.9 |
| 20260505041130 | 17 | 0 | 0.0 | 0.0 | 0.00 | 0.00 | 0.00 | 82 | 1015.9 |
| 20260505040630 | 17 | 0 | 0.0 | 0.0 | 0.00 | 0.00 | 0.00 | 81 | 1016.0 |
| 20260505040130 | 17 | 0 | 0.0 | 0.0 | 0.00 | 0.00 | 0.00 | 81 | 1015.9 |
| 20260505035130 | 18 | 0 | 1.6 | 3.2 | 0.00 | 0.00 | 0.00 | 79 | 1015.9 |
| 20260505034630 | 18 | 0 | 1.6 | 3.2 | 0.00 | 0.00 | 0.00 | 79 | 1015.9 |
| 20260505034130 | 18 | 255 | 1.6 | 4.8 | 0.00 | 0.00 | 0.00 | 78 | 1015.9 |
| 20260505033109 | 18 | 131 | 1.6 | 4.8 | 0.00 | 0.00 | 0.00 | 78 | 1015.7 |
| 20260505032610 | 18 | 163 | 1.6 | 3.2 | 0.00 | 0.00 | 0.00 | 78 | 1015.7 |
| 20260505032110 | 19 | 0 | 1.6 | 4.8 | 0.00 | 0.00 | 0.00 | 77 | 1015.7 |
| 20260505031609 | 19 | 60 | 1.6 | 4.8 | 0.00 | 0.00 | 0.00 | 77 | 1015.6 |
| 20260505031102 | 19 | 77 | 3.2 | 6.4 | 0.00 | 0.00 | 0.00 | 77 | 1015.6 |
| 20260505025602 | 19 | 95 | 3.2 | 6.4 | 0.00 | 0.00 | 0.00 | 76 | 1015.6 |
| 20260505025102 | 19 | 102 | 4.8 | 11.3 | 0.00 | 0.00 | 0.00 | 76 | 1015.5 |
| 20260505023559 | 20 | 85 | 6.4 | 12.9 | 0.00 | 0.00 | 0.00 | 75 | 1015.5 |
| 20260505022551 | 20 | 166 | 6.4 | 9.7 | 0.00 | 0.00 | 0.00 | 75 | 1015.4 |
| 20260505021542 | 20 | 206 | 4.8 | 9.7 | 0.00 | 0.00 | 0.00 | 75 | 1015.4 |
| 20260505020537 | 20 | 107 | 4.8 | 9.7 | 0.00 | 0.00 | 0.00 | 74 | 1015.4 |
| 20260505020036 | 20 | 77 | 4.8 | 12.9 | 0.00 | 0.00 | 0.00 | 74 | 1015.4 |
| 20260505015536 | 20 | 94 | 6.4 | 12.9 | 0.00 | 0.00 | 0.00 | 74 | 1015.3 |
| 20260505015035 | 20 | 96 | 6.4 | 12.9 | 0.00 | 0.00 | 0.00 | 74 | 1015.3 |
| 20260505014536 | 20 | 163 | 6.4 | 12.9 | 0.00 | 0.00 | 0.00 | 73 | 1015.3 |
| 20260505014036 | 20 | 113 | 6.4 | 12.9 | 0.00 | 0.00 | 0.00 | 73 | 1015.3 |
| 20260505013530 | 20 | 77 | 6.4 | 12.9 | 0.00 | 0.00 | 0.00 | 73 | 1015.3 |
| 20260505013030 | 20 | 74 | 6.4 | 14.5 | 0.00 | 0.00 | 0.00 | 73 | 1015.3 |
| 20260505012530 | 20 | 123 | 6.4 | 14.5 | 0.00 | 0.00 | 0.00 | 72 | 1015.2 |
| 20260505011534 | 20 | 105 | 6.4 | 16.1 | 0.00 | 0.00 | 0.00 | 72 | 1015.3 |
| 20260505011030 | 20 | 133 | 8.0 | 16.1 | 0.00 | 0.00 | 0.00 | 72 | 1015.2 |
| 20260505010529 | 21 | 149 | 8.0 | 14.5 | 0.00 | 0.00 | 0.00 | 72 | 1015.1 |
| 20260505010030 | 21 | 159 | 6.4 | 12.9 | 0.00 | 0.00 | 0.00 | 72 | 1015.0 |
| 20260505005530 | 21 | 132 | 6.4 | 11.3 | 0.00 | 0.00 | 0.00 | 71 | 1015.0 |
| 20260505005030 | 21 | 61 | 6.4 | 11.3 | 0.00 | 0.00 | 0.00 | 71 | 1014.9 |
| 20260505004529 | 21 | 86 | 6.4 | 14.5 | 0.00 | 0.00 | 0.00 | 71 | 1014.9 |
| 20260505004029 | 21 | 115 | 8.0 | 16.1 | 0.00 | 0.00 | 0.00 | 70 | 1014.8 |
| 20260505003529 | 21 | 106 | 8.0 | 16.1 | 0.00 | 0.00 | 0.00 | 70 | 1014.9 |
| 20260505002529 | 21 | 95 | 8.0 | 14.5 | 0.00 | 0.00 | 0.00 | 69 | 1014.8 |
| 20260505002029 | 21 | 95 | 8.0 | 20.9 | 0.00 | 0.00 | 0.00 | 69 | 1014.7 |
| 20260505001529 | 21 | 73 | 8.0 | 20.9 | 0.00 | 0.00 | 0.00 | 69 | 1014.7 |
| 20260505001029 | 21 | 157 | 6.4 | 16.1 | 0.00 | 0.00 | 0.00 | 69 | 1014.7 |
| 20260505000529 | 22 | 145 | 9.7 | 20.9 | 0.00 | 0.00 | 0.00 | 68 | 1014.7 |
| 20260505000029 | 22 | 126 | 9.7 | 20.9 | 0.00 | 0.00 | 0.00 | 67 | 1014.6 |
| 20260504235529 | 22 | 132 | 9.7 | 14.5 | 0.00 | 0.00 | 0.00 | 67 | 1014.5 |
| 20260504235028 | 22 | 127 | 11.3 | 17.7 | 0.00 | 0.00 | 0.00 | 67 | 1014.5 |
| 20260504234530 | 22 | 80 | 11.3 | 17.7 | 0.00 | 0.00 | 0.00 | 66 | 1014.4 |
| 20260504234028 | 22 | 165 | 9.7 | 19.3 | 0.00 | 0.00 | 0.00 | 65 | 1014.3 |
| 20260504233529 | 22 | 113 | 9.7 | 19.3 | 0.00 | 0.00 | 0.00 | 65 | 1014.2 |
| 20260504233030 | 22 | 118 | 11.3 | 17.7 | 0.00 | 0.00 | 0.00 | 64 | 1014.1 |
| 20260504232530 | 23 | 110 | 9.7 | 16.1 | 0.00 | 0.00 | 0.00 | 63 | 1014.2 |
| 20260504232029 | 23 | 119 | 9.7 | 17.7 | 0.00 | 0.00 | 0.00 | 63 | 1014.2 |
| 20260504231530 | 23 | 99 | 9.7 | 17.7 | 0.00 | 0.00 | 0.00 | 63 | 1014.0 |
| 20260504231029 | 23 | 118 | 9.7 | 25.7 | 0.00 | 0.00 | 0.00 | 63 | 1014.1 |
| 20260504230530 | 23 | 76 | 9.7 | 25.7 | 0.00 | 0.00 | 0.00 | 61 | 1013.9 |
| 20260504230030 | 23 | 69 | 9.7 | 16.1 | 0.00 | 0.00 | 0.00 | 60 | 1013.9 |
| 20260504225529 | 23 | 72 | 8.0 | 16.1 | 0.00 | 0.00 | 0.00 | 60 | 1014.0 |
| 20260504225030 | 23 | 125 | 8.0 | 20.9 | 0.00 | 0.00 | 0.00 | 60 | 1014.1 |
| 20260504224032 | 23 | 116 | 8.0 | 17.7 | 0.00 | 0.00 | 0.00 | 60 | 1014.1 |
| 20260504223528 | 23 | 120 | 9.7 | 17.7 | 0.00 | 0.00 | 0.00 | 59 | 1014.1 |
| 20260504222529 | 23 | 62 | 8.0 | 17.7 | 0.00 | 0.00 | 0.00 | 59 | 1014.0 |
| 20260504222030 | 23 | 357 | 8.0 | 17.7 | 0.00 | 0.00 | 0.00 | 58 | 1014.1 |
| 20260504221530 | 23 | 54 | 8.0 | 17.7 | 0.00 | 0.00 | 0.00 | 58 | 1014.0 |
| 20260504221030 | 23 | 56 | 9.7 | 19.3 | 0.00 | 0.00 | 0.00 | 58 | 1014.2 |
| 20260504220528 | 23 | 77 | 8.0 | 19.3 | 0.00 | 0.00 | 0.00 | 57 | 1014.1 |
| 20260504220029 | 23 | 160 | 8.0 | 19.3 | 0.00 | 0.00 | 0.00 | 57 | 1014.2 |
| 20260504215029 | 23 | 63 | 9.7 | 17.7 | 0.00 | 0.00 | 0.00 | 56 | 1014.1 |
| 20260504214530 | 23 | 83 | 8.0 | 17.7 | 0.00 | 0.00 | 0.00 | 56 | 1014.2 |
| 20260504214028 | 23 | 153 | 8.0 | 16.1 | 0.00 | 0.00 | 0.00 | 56 | 1014.1 |
| 20260504213529 | 23 | 62 | 9.7 | 16.1 | 0.00 | 0.00 | 0.00 | 56 | 1014.1 |
| 20260504212529 | 23 | 33 | 9.7 | 19.3 | 0.00 | 0.00 | 0.00 | 55 | 1014.1 |
| 20260504211029 | 24 | 58 | 9.7 | 19.3 | 0.00 | 0.00 | 0.00 | 55 | 1014.3 |
| 20260504210529 | 24 | 104 | 11.3 | 17.7 | 0.00 | 0.00 | 0.00 | 53 | 1014.3 |
| 20260504210029 | 24 | 119 | 9.7 | 17.7 | 0.00 | 0.00 | 0.00 | 52 | 1014.3 |
| 20260504205529 | 24 | 130 | 9.7 | 19.3 | 0.00 | 0.00 | 0.00 | 53 | 1014.3 |
| 20260504205028 | 24 | 124 | 11.3 | 20.9 | 0.00 | 0.00 | 0.00 | 53 | 1014.4 |
| 20260504204528 | 24 | 105 | 9.7 | 20.9 | 0.00 | 0.00 | 0.00 | 53 | 1014.2 |
| 20260504204033 | 24 | 94 | 9.7 | 19.3 | 0.00 | 0.00 | 0.00 | 53 | 1014.4 |
| 20260504203529 | 24 | 152 | 9.7 | 17.7 | 0.00 | 0.00 | 0.00 | 52 | 1014.5 |
| 20260504203029 | 24 | 137 | 6.4 | 16.1 | 0.00 | 0.00 | 0.00 | 52 | 1014.6 |
| 20260504202029 | 24 | 107 | 9.7 | 19.3 | 0.00 | 0.00 | 0.00 | 51 | 1014.6 |
| 20260504201528 | 25 | 143 | 9.7 | 19.3 | 0.00 | 0.00 | 0.00 | 50 | 1014.7 |
| 20260504195530 | 24 | 46 | 8.0 | 16.1 | 0.00 | 0.00 | 0.00 | 47 | 1014.6 |
| 20260504195030 | 24 | 80 | 9.7 | 16.1 | 0.00 | 0.00 | 0.00 | 47 | 1014.8 |
| 20260504194531 | 24 | 38 | 8.0 | 16.1 | 0.00 | 0.00 | 0.00 | 47 | 1014.8 |
| 20260504194029 | 25 | 110 | 6.4 | 14.5 | 0.00 | 0.00 | 0.00 | 46 | 1014.9 |
| 20260504193533 | 24 | 106 | 8.0 | 16.1 | 0.00 | 0.00 | 0.00 | 47 | 1015.0 |
| 20260504193029 | 24 | 36 | 8.0 | 16.1 | 0.00 | 0.00 | 0.00 | 48 | 1015.0 |
| 20260504192531 | 24 | 70 | 9.7 | 20.9 | 0.00 | 0.00 | 0.00 | 48 | 1015.1 |
| 20260504191530 | 25 | 93 | 8.0 | 19.3 | 0.00 | 0.00 | 0.00 | 45 | 1015.0 |
| 20260504191030 | 24 | 87 | 8.0 | 19.3 | 0.00 | 0.00 | 0.00 | 45 | 1015.2 |
| 20260504190530 | 24 | 96 | 8.0 | 17.7 | 0.00 | 0.00 | 0.00 | 45 | 1015.1 |